Date,TemperatureHighF,TemperatureAvgF,TemperatureLowF,DewpointHighF,DewpointAvgF,DewpointLowF,HumidityHigh,HumidityAvg,HumidityLow,PressureMaxIn,PressureMinIn,WindSpeedMaxMPH,WindSpeedAvgMPH,GustSpeedMaxMPH,PrecipitationSumIn
2013-1-1,30.5,14.7,5.1,20.0,10.6,2.0,93,84,65,30.62,30.40,2,0,0,0.02
2013-1-2,34.3,16.1,4.9,21.0,11.7,2.0,94,83,57,30.59,30.46,5,0,0,0.06
2013-1-3,37.2,15.3,3.5,25.0,11.0,0.0,99,84,55,30.57,30.46,0,0,0,0.10
2013-1-4,38.3,17.8,7.7,25.0,10.6,-99.9,94,82,55,30.57,30.43,1,-32,0,0.14
2013-1-5,40.4,23.5,11.5,33.0,19.6,9.0,93,85,64,30.48,30.19,1,0,0,0.10
2013-1-6,41.4,27.3,20.5,30.0,23.0,19.0,94,84,57,30.29,30.12,2,0,0,0.08
2013-1-7,40.8,25.7,12.2,33.0,22.6,10.0,94,88,62,30.42,30.29,2,0,0,0.01
2013-1-8,48.2,31.5,24.8,38.0,28.8,24.0,97,90,66,30.39,30.25,1,0,0,0.05
2013-1-9,48.4,34.1,23.9,34.0,28.0,23.0,98,81,48,30.26,29.73,6,1,0,0.10
2013-1-10,28.9,23.4,15.8,24.0,20.4,14.0,100,88,71,30.11,29.83,0,0,0,0.00
2013-1-11,27.9,17.4,9.2,23.0,14.5,7.0,93,88,78,30.29,30.10,0,0,0,0.00
2013-1-12,28.2,9.0,-2.5,18.0,5.3,-6.0,92,85,63,30.42,30.28,0,0,0,0.00
2013-1-13,23.8,5.6,-7.5,11.0,0.4,-11.0,90,80,56,30.58,30.42,0,0,0,0.00
2013-1-14,28.6,10.9,-0.8,15.0,5.3,-4.0,91,79,50,30.71,30.57,0,0,0,0.01
2013-1-15,40.4,18.0,5.7,28.0,12.7,3.0,92,81,55,30.83,30.72,2,0,0,0.00
2013-1-16,43.7,30.7,18.2,29.0,22.0,16.0,93,72,48,30.68,30.60,2,0,0,0.01
2013-1-17,39.8,21.9,10.8,24.0,16.8,9.0,96,82,50,30.66,30.51,2,0,0,0.01
2013-1-18,38.3,19.9,7.8,24.0,14.7,5.0,95,82,53,30.61,30.49,4,0,0,0.00
2013-1-19,37.9,18.1,6.9,24.0,13.7,4.0,96,84,48,30.66,30.51,1,0,0,0.01
2013-1-20,44.9,20.5,6.6,25.0,14.4,4.0,95,79,41,30.63,30.49,1,0,0,0.05
2013-1-21,46.1,23.9,12.0,29.0,17.7,9.0,94,79,40,30.55,30.37,2,0,0,0.13
2013-1-22,48.0,27.6,14.4,28.0,20.7,12.0,95,78,41,30.44,30.22,2,0,0,0.17
2013-1-23,53.0,36.2,24.8,33.0,24.6,18.0,92,68,25,30.25,30.07,17,1,0,0.35
2013-1-24,40.7,35.9,33.0,40.0,34.9,32.0,98,96,92,30.23,30.14,0,0,0,0.48
2013-1-25,46.6,37.6,33.3,44.0,36.6,33.0,98,96,88,30.23,30.03,2,0,0,0.05
2013-1-26,46.3,37.2,31.0,39.0,31.5,24.0,99,81,57,30.04,29.80,15,3,0,0.03
2013-1-27,35.9,27.9,17.7,28.0,24.5,16.0,95,87,69,30.15,29.87,7,1,0,0.09
2013-1-28,37.9,24.2,12.8,29.0,19.8,11.0,94,84,57,30.30,30.15,2,0,0,0.02
2013-1-29,49.5,31.0,19.8,37.0,26.6,18.0,96,85,55,30.45,30.30,4,0,0,0.00
2013-1-30,53.0,32.0,20.9,35.0,25.7,19.0,97,81,32,30.49,30.37,0,0,0,0.01
2013-1-31,56.4,32.7,21.7,34.0,25.0,18.0,97,78,23,30.44,30.24,4,0,0,0.00
2013-2-1,57.9,31.2,18.7,31.0,22.0,17.0,95,74,30,30.39,30.27,1,0,0,0.00
2013-2-2,51.4,33.2,23.6,32.0,27.0,22.0,95,80,45,30.42,30.30,2,0,0,0.00
2013-2-3,54.4,32.0,20.3,32.0,24.0,18.0,96,77,31,30.33,30.21,0,0,0,0.00
2013-2-4,58.4,34.3,21.3,30.0,24.4,19.0,93,72,26,30.29,30.11,4,0,0,0.00
2013-2-5,49.7,34.3,21.8,31.0,25.6,20.0,95,74,39,30.11,29.94,12,1,0,0.00
2013-2-6,53.1,30.9,18.9,28.0,22.9,17.0,96,76,31,30.19,30.07,4,0,0,0.00
2013-2-7,38.5,31.2,23.2,31.0,24.1,18.0,92,76,62,30.10,29.89,20,3,0,0.03
2013-2-8,34.7,27.7,20.5,25.0,20.0,16.0,96,74,54,30.03,29.88,7,0,0,0.04
2013-2-9,39.2,25.2,13.6,20.0,16.8,11.0,92,72,43,30.20,30.03,5,0,0,0.00
2013-2-10,40.4,25.7,14.2,25.0,17.9,12.0,93,75,46,30.23,30.15,6,0,0,0.00
2013-2-11,47.2,27.8,15.7,24.0,18.4,13.0,92,71,36,30.36,30.22,1,0,0,0.00
2013-2-12,54.8,30.5,17.0,28.0,21.3,15.0,94,73,32,30.46,30.35,2,0,0,0.00
2013-2-13,55.9,33.0,19.8,31.0,24.6,18.0,95,75,37,30.45,30.31,2,0,0,0.00
2013-2-14,53.3,35.3,22.0,33.0,27.5,20.0,97,76,45,30.43,30.34,2,0,0,0.00
2013-2-15,64.2,36.0,24.6,33.0,27.4,23.0,96,75,30,30.45,30.30,2,0,0,0.00
2013-2-16,57.2,33.8,20.9,30.0,22.8,16.0,95,71,23,30.38,30.10,7,1,0,0.00
2013-2-17,53.6,33.4,20.6,30.0,24.3,19.0,95,73,30,30.10,29.97,6,0,0,0.00
2013-2-18,51.1,34.9,21.6,29.0,24.4,20.0,94,69,37,30.06,29.76,18,3,0,0.00
2013-2-19,37.4,29.4,22.6,31.0,25.0,21.0,94,84,63,29.77,29.55,13,2,0,0.01
2013-2-20,41.3,26.5,15.2,29.0,22.1,13.0,96,85,51,30.06,29.78,4,0,0,0.13
2013-2-21,45.3,28.1,18.0,29.0,21.9,16.0,95,80,37,30.22,30.03,4,0,0,0.04
2013-2-22,53.6,34.3,18.1,31.0,24.1,16.0,95,70,35,30.32,30.05,12,2,0,0.00
2013-2-23,41.1,33.7,24.8,31.0,20.3,13.0,79,59,38,30.23,29.90,20,3,0,0.00
2013-2-24,47.7,30.9,22.4,20.0,16.9,14.0,79,59,26,30.36,30.23,2,0,0,0.00
2013-2-25,48.9,31.9,18.9,25.0,19.6,15.0,88,65,27,30.29,30.16,16,2,0,0.00
2013-2-26,48.3,30.6,17.7,21.0,16.6,11.0,92,62,25,30.35,30.23,2,0,0,0.00
2013-2-27,55.9,33.9,16.2,25.0,18.2,13.0,88,59,23,30.42,30.30,10,1,0,0.00
2013-2-28,56.6,38.6,26.0,37.0,29.7,22.0,93,73,45,30.49,30.36,5,0,0,0.00
2013-3-1,67.2,40.3,25.6,40.0,31.5,24.0,98,75,33,30.50,30.28,3,0,0,0.00
2013-3-2,59.7,41.0,28.1,38.0,29.9,26.0,95,70,31,30.34,30.08,14,1,0,0.00
2013-3-3,48.0,39.6,32.9,42.0,37.1,32.0,97,91,71,30.09,29.94,5,0,0,0.13
2013-3-4,57.8,39.7,31.9,39.0,33.9,31.0,97,83,41,30.12,29.97,7,0,0,0.00
2013-3-5,50.0,42.4,31.4,35.0,32.1,28.0,95,68,50,29.99,29.66,15,3,0,0.06
2013-3-6,37.0,36.8,36.5,33.0,32.5,32.0,85,85,85,29.68,29.68,6,4,0,0.00
2013-3-15,46.7,41.4,35.6,34.0,32.9,31.0,83,72,61,30.09,30.05,2,0,0,0.00
2013-3-16,61.6,42.6,25.9,39.0,29.4,24.0,97,65,29,30.10,29.94,22,3,0,0.00
2013-3-17,60.3,42.0,25.2,34.0,27.3,22.0,93,62,24,30.06,29.97,8,2,0,0.00
2013-3-18,58.6,41.0,23.6,33.0,26.5,20.0,96,63,24,30.12,29.99,8,1,0,0.00
2013-3-19,56.4,45.0,37.6,41.0,36.2,31.0,94,73,49,30.09,29.95,15,2,0,0.28
2013-3-20,48.7,42.4,37.2,42.0,38.0,34.0,95,85,70,29.97,29.90,15,4,0,0.94
2013-3-21,53.5,40.9,28.2,36.0,31.2,26.0,96,71,36,30.05,29.93,11,1,0,0.00
2013-3-22,51.0,33.6,19.5,26.0,19.1,10.0,94,63,24,30.18,30.04,5,1,0,0.00
2013-3-23,58.9,37.5,21.3,31.0,22.0,13.0,84,59,22,30.23,30.02,11,1,0,0.00
2013-3-24,62.5,42.0,25.3,36.0,29.9,24.0,95,67,34,30.13,29.93,12,1,0,0.00
2013-3-25,63.0,43.7,26.6,39.0,29.4,24.0,95,64,25,30.00,29.84,17,2,0,0.00
2013-3-26,54.2,42.5,32.1,40.0,33.6,27.0,90,72,50,29.93,29.84,12,1,0,0.00
2013-3-27,57.1,43.3,31.9,39.0,34.9,30.0,94,75,46,29.96,29.88,12,2,0,0.00
2013-3-28,54.7,42.2,34.1,44.0,36.6,33.0,95,82,47,30.13,29.93,15,2,0,0.01
2013-3-29,67.9,45.0,29.0,42.0,35.4,28.0,98,75,30,30.19,30.05,7,1,0,0.01
2013-3-30,69.1,47.4,29.6,45.0,37.5,28.0,98,73,32,30.11,29.93,11,1,0,0.00
2013-3-31,50.3,44.1,38.8,44.0,39.0,36.0,95,83,62,29.97,29.88,9,1,0,0.14
2013-4-1,55.0,43.7,37.6,40.0,37.5,35.0,95,80,57,30.09,29.97,12,2,0,0.00
2013-4-2,64.5,46.3,33.6,45.0,37.5,32.0,96,75,40,30.14,30.00,12,1,0,0.00
2013-4-3,69.0,48.1,32.6,46.0,38.0,31.0,98,73,33,30.11,29.95,9,1,0,0.00
2013-4-4,52.0,44.9,39.2,46.0,40.8,37.0,95,85,75,29.98,29.86,14,2,0,0.24
2013-4-5,54.6,46.9,37.4,39.0,35.6,32.0,92,66,44,30.04,29.97,20,3,0,0.01
2013-4-6,54.8,46.3,38.0,42.0,36.8,34.0,90,71,53,30.04,29.97,14,3,0,0.00
2013-4-7,54.5,46.0,37.4,40.0,36.5,33.0,90,70,50,29.97,29.56,18,5,0,0.35
2013-4-8,44.0,37.6,32.1,35.0,30.0,24.0,95,76,47,30.05,29.55,12,1,0,0.04
2013-4-9,56.3,41.9,27.4,32.0,26.3,22.0,88,58,27,30.21,30.06,10,1,0,0.00
2013-4-10,70.8,45.5,26.7,42.0,33.0,25.0,94,68,31,30.30,29.94,9,2,0,0.00
2013-4-11,67.2,50.5,37.2,42.0,34.5,21.0,93,60,20,29.95,29.77,6,0,0,0.05
2013-4-12,71.0,48.1,26.8,39.0,32.2,25.0,95,61,23,29.94,29.76,12,2,0,0.00
2013-4-13,61.3,48.9,33.1,39.0,31.6,20.0,90,55,28,29.82,29.65,26,6,0,0.00
2013-4-14,58.4,43.2,26.0,36.0,30.2,24.0,93,64,28,29.80,29.64,21,4,0,0.00
2013-4-15,44.6,37.8,30.3,33.0,27.8,21.0,94,69,39,29.85,29.63,16,4,0,0.00
2013-4-16,42.8,33.6,25.3,30.0,25.0,19.0,94,73,39,30.20,29.86,10,1,0,0.05
2013-4-17,51.0,34.1,19.0,24.0,19.3,15.0,93,61,28,30.34,30.21,7,1,0,0.00
2013-4-18,65.0,42.6,21.8,34.0,24.6,18.0,86,55,26,30.36,30.21,5,0,0,0.00
2013-4-19,66.2,46.1,26.8,42.0,33.1,24.0,92,65,37,30.28,30.04,19,3,0,0.00
2013-4-20,70.1,49.3,28.8,44.0,32.7,26.0,94,60,19,30.15,29.94,5,0,0,0.00
2013-4-21,71.3,50.5,28.0,42.0,33.9,26.0,96,61,22,30.10,29.93,11,1,0,0.00
2013-4-22,72.1,51.6,31.5,44.0,32.6,22.0,97,57,18,30.04,29.87,6,0,0,0.00
2013-4-23,70.9,48.3,27.4,35.0,24.1,18.0,73,43,18,30.07,29.84,4,0,0,0.00
2013-4-24,68.0,47.1,26.1,32.0,23.7,18.0,88,49,15,30.02,29.86,6,0,0,0.00
2013-4-25,72.4,48.6,25.7,37.0,28.7,21.0,85,53,18,30.08,29.92,11,1,0,0.00
2013-4-26,76.6,53.9,30.3,45.0,36.7,29.0,96,60,20,30.17,30.06,10,1,0,0.00
2013-4-27,76.9,55.7,33.7,45.0,36.7,31.0,97,58,19,30.18,30.02,10,1,0,0.00
2013-4-28,75.2,55.4,32.8,49.0,38.9,30.0,92,60,23,30.06,29.86,8,1,0,0.00
2013-4-29,76.1,56.7,36.3,47.0,41.1,35.0,97,62,28,29.92,29.68,12,2,0,0.00
2013-4-30,69.5,51.8,35.3,40.0,27.3,8.0,93,48,15,30.01,29.72,9,1,0,0.00
2013-5-1,66.2,49.3,32.7,21.0,15.0,8.0,50,28,11,30.31,30.02,4,0,0,0.00
2013-5-2,78.6,52.6,26.6,40.0,26.9,17.0,71,43,15,30.35,30.09,4,0,0,0.00
2013-5-3,77.6,55.1,33.0,44.0,34.0,25.0,95,55,15,30.13,29.82,10,0,0,0.00
2013-5-4,68.3,49.8,31.7,38.0,32.6,27.0,86,56,26,29.90,29.61,4,0,0,0.00
2013-5-5,65.7,46.4,32.7,47.0,39.9,30.0,96,80,43,29.79,29.60,6,0,0,0.20
2013-5-6,56.3,47.7,42.7,48.0,43.1,40.0,97,85,57,29.86,29.74,9,1,0,0.12
2013-5-7,53.9,45.2,40.1,48.0,42.8,39.0,100,91,71,29.95,29.85,6,0,0,0.09
2013-5-8,66.0,53.0,46.0,51.0,46.7,44.0,95,81,46,30.00,29.91,6,1,0,0.00
2013-5-9,74.0,57.2,42.6,52.0,46.6,42.0,97,73,35,30.05,29.93,7,1,0,0.00
2013-5-10,80.2,58.9,41.1,55.0,46.6,40.0,98,70,25,30.10,29.99,5,0,0,0.00
2013-5-11,82.4,61.5,40.4,55.0,44.1,36.0,98,61,21,30.11,29.99,13,1,0,0.00
2013-5-12,80.9,61.3,41.5,52.0,41.7,36.0,95,56,22,30.08,29.96,14,1,0,0.00
2013-5-13,78.4,59.4,37.5,49.0,37.0,31.0,92,52,18,30.00,29.86,16,3,0,0.00
2013-5-14,79.7,59.9,36.8,47.0,40.5,34.0,93,55,21,29.93,29.77,13,2,0,0.00
2013-5-15,71.7,55.6,40.4,52.0,40.5,30.0,95,64,22,29.85,29.78,13,2,0,0.00
2013-5-16,59.5,49.4,42.3,45.0,42.1,39.0,92,77,53,29.84,29.77,10,2,0,0.00
2013-5-17,61.7,51.3,40.2,43.0,38.5,32.0,94,65,34,29.96,29.81,12,3,0,0.00
2013-5-18,66.8,50.0,31.0,43.0,37.2,30.0,97,66,35,30.06,29.96,18,2,0,0.00
2013-5-19,69.2,51.4,33.0,41.0,33.8,24.0,96,58,20,30.13,30.01,10,1,0,0.00
2013-5-20,78.7,56.2,33.5,43.0,35.3,28.0,87,51,21,30.08,29.85,10,1,0,0.00
2013-5-21,65.6,54.0,38.6,41.0,35.4,28.0,88,54,27,29.86,29.66,24,5,0,0.00
2013-5-22,58.9,46.3,31.6,34.0,22.8,16.0,72,42,23,29.80,29.68,11,2,0,0.00
2013-5-23,59.3,42.1,24.1,34.0,26.0,19.0,84,57,29,29.99,29.79,11,2,0,0.00
2013-5-24,67.1,47.5,25.0,34.0,28.5,20.0,94,56,18,29.98,29.85,13,2,0,0.00
2013-5-25,66.7,50.2,29.9,37.0,32.6,27.0,91,57,25,29.91,29.82,19,2,0,0.00
2013-5-26,64.1,49.4,30.9,40.0,35.1,29.0,94,63,36,30.01,29.88,13,2,0,0.00
2013-5-27,57.5,45.6,31.2,45.0,39.0,29.0,95,79,56,30.01,29.86,10,2,0,0.06
2013-5-28,64.7,52.9,44.3,45.0,43.2,40.0,94,72,45,29.86,29.79,10,2,0,0.03
2013-5-29,66.8,55.5,43.8,44.0,41.7,37.0,86,62,39,29.83,29.70,14,4,0,0.01
2013-5-30,71.1,52.9,31.4,43.0,36.9,29.0,97,62,23,29.98,29.83,11,2,0,0.00
2013-5-31,84.9,57.8,31.7,48.0,34.8,27.0,96,52,14,30.05,29.91,4,0,0,0.00
2013-6-1,86.5,61.7,34.7,47.0,38.2,29.0,86,49,18,29.98,29.73,7,1,0,0.00
2013-6-2,82.0,62.9,40.3,50.0,43.7,38.0,95,56,23,29.75,29.58,14,2,0,0.00
2013-6-3,88.6,63.9,39.6,51.0,41.9,35.0,93,53,17,29.77,29.64,7,0,0,0.00
2013-6-4,90.0,65.5,40.4,52.0,43.4,33.0,91,54,14,29.81,29.69,5,0,0,0.00
2013-6-5,91.0,67.7,43.3,53.0,44.6,34.0,90,53,14,29.86,29.72,6,1,0,0.00
2013-6-6,91.9,69.0,44.5,53.0,45.7,41.0,90,51,19,29.82,29.69,9,1,0,0.00
2013-6-7,94.3,67.9,43.8,54.0,45.3,39.0,87,52,15,29.83,29.68,10,1,0,0.00
2013-6-8,96.2,72.6,49.9,57.0,50.2,44.0,91,52,18,29.77,29.61,4,0,0,0.00
2013-6-9,94.6,71.9,49.2,63.0,52.1,44.0,86,55,21,29.69,29.51,8,1,0,0.00
2013-6-10,75.8,64.8,52.6,57.0,50.5,41.0,91,62,40,29.71,29.52,13,2,0,0.00
2013-6-11,74.9,61.5,45.4,46.0,41.6,36.0,78,52,27,29.82,29.71,15,3,0,0.00
2013-6-12,74.2,58.3,40.4,48.0,36.7,23.0,93,52,18,29.86,29.74,28,3,0,0.00
2013-6-13,70.5,53.9,34.1,40.0,31.9,26.0,92,50,19,30.03,29.86,14,3,0,0.00
2013-6-14,79.3,56.4,32.9,45.0,34.4,29.0,87,50,20,30.04,29.78,4,0,0,0.00
2013-6-15,78.4,58.7,35.6,44.0,34.7,28.0,85,47,16,29.90,29.77,11,2,0,0.00
2013-6-16,78.5,58.6,34.4,42.0,35.2,30.0,87,48,20,29.97,29.90,11,2,0,0.00
2013-6-17,77.3,58.8,36.6,44.0,37.4,33.0,88,51,20,29.98,29.84,13,2,0,0.00
2013-6-18,67.1,54.5,37.5,42.0,35.8,26.0,88,54,23,29.84,29.70,21,5,0,0.00
2013-6-19,64.4,53.4,41.6,37.0,34.6,31.0,75,51,30,29.92,29.76,12,3,0,0.00
2013-6-20,71.7,52.1,30.2,40.0,34.3,28.0,93,56,28,29.96,29.84,10,2,0,0.00
2013-6-21,74.5,54.7,33.2,44.0,36.7,27.0,91,57,20,29.96,29.83,10,1,0,0.00
2013-6-22,80.7,59.8,36.1,45.0,39.2,33.0,92,53,24,29.93,29.73,12,2,0,0.00
2013-6-23,69.7,55.3,38.8,48.0,41.6,35.0,89,63,36,29.76,29.63,19,2,0,0.00
2013-6-24,59.7,54.1,50.0,50.0,47.1,44.0,94,78,64,29.77,29.59,14,2,0,0.11
2013-6-25,60.8,55.5,49.4,57.0,52.9,48.0,98,91,78,29.88,29.76,9,1,0,0.44
2013-6-26,77.2,64.7,53.8,58.0,54.7,51.0,96,73,44,29.95,29.86,13,3,0,0.00
2013-6-27,86.4,65.2,45.1,57.0,49.9,44.0,98,66,26,30.03,29.94,12,1,0,0.00
2013-6-28,95.2,70.4,47.2,59.0,53.2,45.0,96,62,26,30.01,29.80,11,1,0,0.00
2013-6-29,94.1,72.6,51.6,60.0,53.1,42.0,97,59,18,29.87,29.71,10,1,0,0.00
2013-6-30,94.5,72.8,50.5,60.0,53.9,48.0,93,58,26,29.79,29.63,11,2,0,0.00
2013-7-1,96.6,75.5,55.3,62.0,53.2,46.0,86,53,18,29.81,29.72,8,1,0,0.00
2013-7-2,100.2,73.3,58.5,61.0,56.8,52.0,89,61,23,29.88,29.68,11,0,0,0.00
2013-7-3,98.0,73.1,52.9,64.0,56.8,51.0,96,64,23,29.90,29.66,5,1,0,0.00
2013-7-4,91.8,72.6,55.1,64.0,56.7,51.0,97,63,28,29.76,29.56,14,1,0,0.00
2013-7-5,89.2,71.2,51.3,58.0,46.7,40.0,91,49,19,29.63,29.52,11,2,0,0.00
2013-7-6,85.3,59.3,41.2,48.0,39.2,31.0,87,55,17,29.70,29.62,12,1,0,0.00
2013-7-7,86.7,64.8,39.7,47.0,40.2,34.0,85,47,18,29.77,29.68,10,1,0,0.00
2013-7-8,87.2,63.6,42.4,51.0,41.9,35.0,88,53,17,29.91,29.78,10,1,0,0.00
2013-7-9,85.8,66.5,43.2,47.0,39.5,34.0,79,44,17,29.96,29.91,13,2,0,0.00
2013-7-10,87.5,66.4,42.2,49.0,39.4,31.0,84,44,14,29.95,29.79,18,2,0,0.00
2013-7-11,83.8,64.8,44.6,50.0,37.9,29.0,87,45,14,29.82,29.69,17,3,0,0.00
2013-7-12,82.7,61.2,37.9,43.0,35.2,31.0,79,44,17,29.85,29.76,11,2,0,0.00
2013-7-13,85.1,62.4,35.6,40.0,34.3,28.0,79,41,15,29.91,29.83,14,2,0,0.00
2013-7-14,88.3,65.6,41.1,46.0,40.5,34.0,82,46,19,29.95,29.78,15,2,0,0.00
2013-7-15,87.5,65.1,45.9,50.0,44.1,39.0,82,52,21,29.83,29.62,15,2,0,0.00
2013-7-16,82.3,66.1,48.8,52.0,39.5,29.0,81,44,15,29.87,29.67,14,2,0,0.00
2013-7-17,87.5,63.0,36.4,45.0,37.0,30.0,84,45,15,30.00,29.87,11,1,0,0.00
2013-7-18,93.9,67.2,40.9,51.0,42.0,34.0,82,47,16,29.99,29.79,8,1,0,0.00
2013-7-19,97.0,71.9,46.0,53.0,44.6,39.0,82,44,17,29.87,29.66,11,1,0,0.00
2013-7-20,98.6,73.6,51.0,59.0,50.0,43.0,82,49,17,29.75,29.56,11,1,0,0.00
2013-7-21,98.3,76.0,51.3,57.0,50.1,42.0,88,48,15,29.68,29.56,11,2,0,0.00
2013-7-22,94.5,72.5,52.3,59.0,48.9,41.0,83,48,22,29.80,29.65,13,2,0,0.00
2013-7-23,89.8,69.5,51.6,58.0,47.5,42.0,72,48,23,29.84,29.76,4,0,0,0.00
2013-7-24,89.3,73.8,55.1,58.0,53.2,49.0,82,52,30,29.83,29.72,13,2,0,0.00
2013-7-25,94.1,70.7,51.8,65.0,54.7,48.0,89,61,28,29.90,29.73,8,1,0,0.00
2013-7-26,90.6,72.2,57.2,57.0,52.6,44.0,87,56,25,29.94,29.83,12,2,0,0.00
2013-7-27,89.3,70.0,46.0,55.0,46.8,41.0,84,49,19,29.90,29.69,12,2,0,0.00
2013-7-28,87.2,68.7,48.8,54.0,46.7,43.0,87,51,22,29.73,29.61,13,2,0,0.00
2013-7-29,81.9,63.0,43.2,49.0,37.5,28.0,85,47,15,29.90,29.69,12,2,0,0.00
2013-7-30,85.0,62.9,37.0,43.0,36.2,28.0,73,42,17,30.01,29.91,12,2,0,0.00
2013-7-31,82.4,66.3,51.4,48.0,42.4,39.0,70,45,24,29.97,29.82,13,2,0,0.00
2013-8-1,76.7,59.6,37.6,40.0,32.1,26.0,85,43,15,29.91,29.84,16,3,0,0.00
2013-8-2,81.4,60.5,35.4,39.0,32.7,26.0,77,42,14,29.94,29.80,15,2,0,0.00
2013-8-3,83.8,62.5,38.4,43.0,37.1,31.0,81,45,18,29.90,29.77,14,2,0,0.00
2013-8-4,87.4,64.5,40.3,46.0,39.1,34.0,82,46,16,29.91,29.79,11,2,0,0.00
2013-8-5,86.3,67.6,40.7,46.0,40.2,34.0,86,42,19,29.92,29.77,10,1,0,0.00
2013-8-6,88.5,64.3,39.5,45.0,38.6,27.0,86,46,13,29.91,29.75,22,2,0,0.00
2013-8-7,79.4,65.6,49.4,45.0,40.7,38.0,65,42,23,29.88,29.78,13,2,0,0.00
2013-8-8,75.7,57.7,40.3,46.0,39.4,35.0,85,54,30,29.87,29.79,13,2,0,0.00
2013-8-9,78.5,60.0,41.8,47.0,39.4,35.0,87,52,22,29.87,29.75,14,2,0,0.00
2013-8-10,76.5,57.8,37.0,43.0,37.6,33.0,92,53,22,29.95,29.86,12,2,0,0.00
2013-8-11,81.3,58.7,36.1,43.0,37.5,32.0,91,53,19,29.98,29.83,14,1,0,0.00
2013-8-12,82.7,60.8,37.4,47.0,40.0,33.0,84,52,22,29.93,29.83,10,2,0,0.00
2013-8-13,84.8,62.5,38.7,46.0,39.1,34.0,89,50,16,29.97,29.84,7,1,0,0.00
2013-8-14,87.8,63.2,37.8,45.0,36.7,31.0,84,46,13,29.93,29.80,8,1,0,0.00
2013-8-15,87.4,61.9,38.9,44.0,32.6,23.0,78,42,10,29.91,29.84,14,2,0,0.00
2013-8-16,87.4,62.0,36.7,41.0,32.5,24.0,77,41,10,29.96,29.88,14,1,0,0.00
2013-8-17,88.6,65.7,40.7,45.0,37.7,27.0,82,43,12,29.96,29.76,8,1,0,0.00
2013-8-18,94.9,68.1,46.7,54.0,45.1,39.0,78,50,16,29.86,29.70,9,1,0,0.09
2013-8-19,88.1,65.9,51.2,60.0,52.2,46.0,86,64,28,29.85,29.77,2,0,0,0.00
2013-8-20,88.9,70.9,56.5,63.0,52.4,45.0,93,57,25,29.82,29.68,11,1,0,0.03
2013-8-21,88.8,67.9,54.1,57.0,50.6,46.0,88,57,26,29.78,29.67,4,0,0,0.03
2013-8-22,79.9,64.4,50.7,46.0,42.2,37.0,72,48,22,29.82,29.76,12,1,0,0.07
2013-8-23,80.8,59.3,38.8,49.0,40.2,33.0,95,58,18,29.85,29.70,17,2,0,0.00
2013-8-24,78.2,58.0,37.7,48.0,40.0,35.0,92,58,23,29.80,29.72,10,2,0,0.00
2013-8-25,75.1,58.8,42.4,48.0,43.4,39.0,89,61,33,29.85,29.77,14,2,0,0.00
2013-8-26,78.5,60.1,43.1,52.0,43.9,41.0,94,61,28,29.90,29.81,12,2,0,0.00
2013-8-27,82.6,60.4,40.0,49.0,43.6,38.0,98,60,28,29.87,29.72,13,1,0,0.00
2013-8-28,81.9,62.8,42.9,53.0,45.3,40.0,91,58,27,29.86,29.76,13,2,0,0.00
2013-8-29,81.9,62.5,42.5,52.0,42.9,40.0,93,56,24,29.98,29.86,12,2,0,0.00
2013-8-30,88.0,63.1,39.4,47.0,38.4,26.0,91,50,11,30.02,29.87,13,1,0,0.00
2013-8-31,87.7,64.1,40.9,48.0,40.9,35.0,85,49,19,29.94,29.79,11,1,0,0.00
2013-9-1,82.2,66.9,56.4,57.0,48.7,43.0,69,54,35,29.83,29.70,12,1,0,0.00
2013-9-2,63.4,59.8,56.7,62.0,57.0,50.0,97,91,68,29.82,29.73,5,0,0,0.30
2013-9-3,77.8,64.0,54.3,62.0,56.6,52.0,99,80,47,29.85,29.77,12,1,0,0.21
2013-9-4,79.1,62.5,47.3,59.0,52.5,46.0,99,74,40,29.90,29.80,7,1,0,0.11
2013-9-5,74.7,60.1,46.9,55.0,43.6,34.0,96,62,23,29.93,29.79,16,2,0,0.10
2013-9-6,82.4,57.3,35.6,50.0,41.5,34.0,96,63,23,30.00,29.85,10,1,0,0.07
2013-9-7,83.1,60.0,40.1,50.0,43.7,37.0,96,62,22,29.92,29.80,10,1,0,0.03
2013-9-8,85.7,61.2,38.6,50.0,40.7,35.0,97,57,17,29.91,29.76,8,1,0,0.00
2013-9-9,88.0,62.8,41.2,49.0,41.8,38.0,90,53,19,29.86,29.66,7,1,0,0.00
2013-9-10,87.4,62.5,39.6,52.0,40.1,29.0,87,51,13,29.81,29.68,6,0,0,0.00
2013-9-11,84.4,60.9,41.9,52.0,44.0,37.0,87,58,24,29.89,29.79,8,1,0,0.00
2013-9-12,83.8,60.6,44.6,60.0,49.9,41.0,93,72,31,29.89,29.73,6,1,0,0.03
2013-9-13,84.6,61.0,47.9,60.0,52.9,47.0,98,78,31,29.85,29.69,7,0,0,0.00
2013-9-14,85.1,63.5,45.8,62.0,50.7,45.0,98,68,31,29.76,29.61,11,1,0,0.00
2013-9-15,79.4,60.8,43.6,54.0,41.7,33.0,96,57,23,29.76,29.66,10,1,0,0.00
2013-9-16,78.3,56.6,35.3,47.0,38.6,31.0,86,56,26,29.83,29.71,13,2,0,0.00
2013-9-17,67.6,54.9,43.4,43.0,37.8,29.0,85,58,25,29.83,29.61,20,3,0,0.00
2013-9-18,76.2,52.1,34.2,44.0,36.4,27.0,97,62,18,29.94,29.81,6,0,0,0.00
2013-9-19,81.0,54.9,32.8,39.0,33.8,29.0,90,52,19,29.94,29.76,8,1,0,0.00
2013-9-20,72.9,53.6,32.3,44.0,34.5,27.0,86,54,21,29.79,29.66,19,3,0,0.00
2013-9-21,55.6,49.7,41.8,48.0,42.7,38.0,94,78,57,29.76,29.56,17,4,0,0.14
2013-9-22,63.5,48.4,39.5,44.0,40.9,38.0,95,78,47,29.98,29.76,7,1,0,0.07
2013-9-23,72.2,50.1,32.6,48.0,38.7,31.0,98,72,25,30.05,29.91,8,1,0,0.01
2013-9-24,65.2,52.3,36.8,42.0,39.1,35.0,94,65,36,29.93,29.67,21,4,0,0.01
2013-9-25,52.7,42.2,34.7,42.0,36.4,32.0,100,82,50,29.85,29.68,11,1,0,0.04
2013-9-26,52.4,39.9,31.7,39.0,32.5,28.0,96,78,42,30.07,29.85,7,0,0,0.02
2013-9-27,65.4,41.7,25.3,41.0,30.2,24.0,97,69,26,30.19,30.06,6,0,0,0.01
2013-9-28,68.8,49.4,30.1,40.0,34.0,28.0,93,61,31,30.14,29.97,18,2,0,0.00
2013-9-29,63.0,57.7,55.2,45.0,38.8,32.0,67,50,39,29.97,29.82,24,6,0,0.00
2013-9-30,62.7,54.6,42.3,51.0,45.4,40.0,92,72,59,29.88,29.80,21,4,0,0.00
2013-10-1,68.6,49.4,35.7,49.0,39.1,35.0,98,73,32,29.94,29.86,18,2,0,0.00
2013-10-2,64.2,46.3,31.0,40.0,32.1,28.0,96,64,27,29.95,29.85,18,2,0,0.00
2013-10-3,55.8,40.9,25.1,30.0,23.9,18.0,91,57,24,30.20,29.95,5,1,0,0.00
2013-10-4,61.0,45.9,35.0,27.0,23.0,18.0,67,43,22,30.29,30.19,5,0,0,0.00
2013-10-5,72.4,46.4,26.5,32.0,23.8,19.0,78,46,16,30.38,30.19,5,0,0,0.00
2013-10-6,73.7,48.0,27.1,32.0,24.9,20.0,80,47,14,30.25,30.05,8,1,0,0.00
2013-10-7,70.1,46.3,26.6,31.0,25.3,20.0,80,50,18,30.07,29.88,13,1,0,0.00
2013-10-8,62.6,44.7,24.8,33.0,27.1,20.0,83,54,27,29.96,29.64,8,0,0,0.00
2013-10-9,50.9,43.6,35.0,39.0,34.0,30.0,90,70,50,29.75,29.58,4,0,0,0.02
2013-10-10,63.6,42.4,27.5,40.0,32.8,25.0,94,73,38,30.00,29.76,13,2,0,0.00
2013-10-11,65.2,43.3,25.1,39.0,32.5,23.0,97,71,29,30.07,29.94,10,1,0,0.00
2013-10-12,59.3,42.4,25.3,39.0,32.0,24.0,97,71,36,30.01,29.85,15,2,0,0.01
2013-10-13,55.2,41.0,31.9,42.0,35.7,30.0,96,83,47,30.17,29.93,4,0,0,0.32
2013-10-14,63.8,40.3,26.5,39.0,30.8,25.0,97,73,29,30.27,30.12,3,0,0,0.00
2013-10-15,59.6,40.1,25.4,34.0,27.0,23.0,95,65,26,30.21,30.13,2,0,0,0.00
2013-10-16,66.1,41.2,23.1,37.0,28.7,20.0,89,66,30,30.23,30.12,7,1,0,0.00
2013-10-17,72.5,42.9,25.2,40.0,28.8,23.0,96,65,21,30.19,30.02,5,0,0,0.00
2013-10-18,74.9,44.7,26.1,40.0,28.7,23.0,91,60,18,30.21,30.04,4,0,0,0.00
2013-10-19,73.3,44.8,25.6,43.0,30.2,23.0,92,63,23,30.20,30.05,5,0,0,0.00
2013-10-20,78.5,45.9,27.0,41.0,29.9,25.0,94,62,15,30.14,29.95,3,0,0,0.00
2013-10-21,77.8,46.5,27.6,41.0,28.3,23.0,85,56,16,30.12,29.96,4,0,0,0.00
2013-10-22,75.6,46.3,27.4,35.0,26.9,21.0,88,55,13,30.13,29.97,6,0,0,0.00
2013-10-23,78.7,46.0,26.6,44.0,27.4,21.0,84,54,16,30.07,29.90,4,0,0,0.00
2013-10-24,73.9,48.2,27.9,35.0,26.4,22.0,84,49,16,30.13,29.96,10,1,0,0.00
2013-10-25,71.5,43.2,24.5,36.0,24.5,19.0,84,54,17,30.25,30.13,4,0,0,0.00
2013-10-26,76.5,44.3,25.4,38.0,25.5,19.0,82,54,15,30.27,30.09,4,0,0,0.00
2013-10-27,64.2,42.8,24.4,31.0,25.2,20.0,86,56,23,30.11,29.44,22,4,0,0.00
2013-10-28,39.1,36.1,32.9,35.0,33.0,30.0,94,88,71,29.79,29.48,8,1,0,0.02
2013-10-29,42.8,39.1,35.4,37.0,35.0,33.0,92,85,79,30.02,29.79,9,2,0,0.00
2013-10-30,52.8,35.9,23.8,40.0,31.1,22.0,97,84,58,30.21,30.02,7,0,0,0.00
2013-10-31,62.7,38.1,24.9,39.0,30.2,23.0,97,77,35,30.32,30.17,5,0,0,0.00
2013-11-1,68.6,40.3,26.0,42.0,32.2,25.0,97,77,31,30.30,30.09,3,0,0,0.00
2013-11-2,59.6,41.9,23.9,39.0,31.2,22.0,96,71,34,30.12,29.87,12,2,0,0.01
2013-11-3,47.9,38.9,29.5,36.0,23.1,17.0,77,55,33,29.98,29.89,5,0,0,0.00
2013-11-4,49.6,32.2,19.9,24.0,18.1,15.0,82,59,30,30.22,29.95,4,0,0,0.00
2013-11-5,57.2,34.2,19.0,33.0,21.8,14.0,87,64,30,30.37,30.22,2,0,0,0.00
2013-11-6,63.5,39.5,24.7,40.0,29.7,21.0,89,71,35,30.40,30.25,2,0,0,0.00
2013-11-7,63.5,45.4,30.3,36.0,27.1,19.0,93,57,22,30.28,30.03,13,2,0,0.00
2013-11-8,63.5,42.0,26.1,37.0,29.4,21.0,89,64,37,30.09,29.92,17,1,0,0.00
2013-11-9,66.8,39.1,24.5,38.0,29.7,23.0,97,74,27,30.15,30.02,4,0,0,0.00
2013-11-10,68.6,39.2,23.3,37.0,24.2,15.0,94,64,13,30.21,30.10,8,0,0,0.00
2013-11-11,72.7,42.9,26.1,32.0,24.1,19.0,77,53,15,30.24,30.11,3,0,0,0.00
2013-11-12,68.1,49.3,37.8,37.0,31.5,26.0,70,53,28,30.27,30.19,6,0,0,0.00
2013-11-13,66.9,43.7,28.7,37.0,31.1,25.0,90,65,30,30.29,30.15,2,0,0,0.00
2013-11-14,63.4,41.6,23.8,36.0,27.5,22.0,94,64,25,30.20,29.80,14,2,0,0.00
2013-11-15,52.6,39.0,26.3,30.0,25.1,20.0,76,60,31,29.82,29.66,3,0,0,0.00
2013-11-16,52.7,41.0,25.4,30.0,24.4,17.0,86,54,34,29.89,29.67,15,4,0,0.00
2013-11-17,59.6,34.6,20.8,37.0,26.8,18.0,93,76,39,30.15,29.89,1,0,0,0.00
2013-11-18,56.8,39.1,21.6,37.0,30.5,19.0,94,74,45,30.15,29.97,12,2,0,0.00
2013-11-19,49.1,43.0,39.2,41.0,38.5,36.0,95,85,67,29.97,29.85,13,1,0,0.11
2013-11-20,46.4,40.4,35.1,44.0,39.1,34.0,98,95,86,29.89,29.76,1,0,0,0.35
2013-11-21,35.2,32.7,28.5,34.0,24.6,16.0,96,74,53,30.30,29.89,1,0,0,0.02
2013-11-22,45.1,34.1,24.5,15.0,11.1,6.0,58,40,24,30.39,30.19,5,0,0,0.00
2013-11-23,49.3,34.9,23.0,18.0,13.8,10.0,71,45,21,30.21,30.11,4,0,0,0.00
2013-11-24,53.0,28.1,14.5,24.0,16.9,11.0,90,67,26,30.41,30.21,2,0,0,0.00
2013-11-25,56.7,31.5,18.3,30.0,21.2,15.0,90,70,28,30.47,30.34,1,0,0,0.00
2013-11-26,56.0,34.4,21.6,35.0,25.9,19.0,98,73,42,30.40,30.16,0,0,0,0.00
2013-11-27,55.9,35.6,25.5,38.0,28.1,23.0,99,76,37,30.18,29.93,4,0,0,0.00
2013-11-28,50.3,33.6,24.3,35.0,28.5,22.0,95,83,51,30.21,30.02,4,0,0,0.00
2013-11-29,55.4,33.4,23.1,37.0,27.9,21.0,96,83,48,30.35,30.19,2,0,0,0.00
2013-11-30,56.3,33.5,23.8,36.0,27.5,22.0,94,81,43,30.41,30.26,1,0,0,0.00
2013-12-1,55.8,33.6,20.6,42.0,28.4,19.0,95,83,50,30.49,30.33,2,0,0,0.01
2013-12-2,55.9,39.4,23.4,37.0,28.5,22.0,95,70,32,30.34,29.79,25,5,0,0.01
2013-12-3,44.7,29.6,12.1,38.0,24.9,8.0,92,83,69,29.92,29.59,12,2,0,0.03
2013-12-4,29.0,14.8,6.6,18.0,10.6,4.0,94,83,60,30.24,29.92,1,0,0,0.01
2013-12-5,32.1,11.9,0.9,17.0,6.9,-2.0,91,81,50,30.31,30.19,2,0,0,0.00
2013-12-6,30.7,17.9,4.0,25.0,12.2,1.0,94,80,46,30.26,29.86,16,2,0,0.00
2013-12-7,27.5,21.8,11.0,24.0,16.5,8.0,92,80,63,30.22,29.81,13,2,0,0.00
2013-12-8,23.1,5.8,-7.5,12.0,1.1,-11.0,91,81,58,30.67,30.21,1,0,0,0.00
2013-12-9,27.4,7.4,-5.6,13.0,2.0,-9.0,91,79,52,30.81,30.66,1,0,0,0.01
2013-12-10,38.3,15.2,-1.4,24.0,9.7,-5.0,91,80,53,30.76,30.51,0,0,0,0.00
2013-12-11,35.3,18.6,7.2,21.0,13.8,5.0,94,82,55,30.56,30.45,2,0,0,0.00
2013-12-12,39.8,19.1,6.0,29.0,15.0,3.0,93,84,59,30.54,30.35,0,0,0,0.00
2013-12-13,44.9,22.5,9.1,29.0,17.8,6.0,94,83,50,30.61,30.41,0,0,0,0.00
2013-12-14,46.4,24.9,13.7,31.0,20.1,11.0,96,83,48,30.69,30.56,0,0,0,0.00
2013-12-15,50.6,26.3,15.5,33.0,21.6,13.0,95,84,50,30.65,30.49,1,0,0,0.03
2013-12-16,51.4,28.1,17.3,32.0,22.8,15.0,96,83,44,30.58,30.43,0,0,0,0.01
2013-12-17,49.6,30.0,21.0,30.0,24.3,19.0,95,81,43,30.51,30.25,2,0,0,0.00
2013-12-18,54.3,34.1,19.9,30.0,25.0,18.0,94,73,35,30.25,29.72,10,0,0,0.00
2013-12-19,36.1,31.4,23.1,29.0,21.2,15.0,84,66,52,30.03,29.70,3,0,0,0.00
2013-12-20,41.5,25.6,13.7,22.0,14.6,8.0,84,66,27,30.19,30.03,2,0,0,0.00
2013-12-21,51.2,32.0,21.4,32.0,24.6,18.0,93,76,44,30.25,30.06,1,0,0,0.00
2013-12-22,51.4,31.3,21.2,35.0,27.0,19.0,95,85,54,30.47,30.24,1,0,0,0.00
2013-12-23,51.9,29.6,20.9,36.0,25.6,20.0,97,86,48,30.54,30.44,0,0,0,0.01
2013-12-24,50.4,30.4,21.0,36.0,26.5,19.0,100,86,55,30.55,30.43,0,0,0,0.00
2013-12-25,51.9,29.9,20.9,36.0,25.9,19.0,97,86,50,30.57,30.43,1,0,0,0.01
2013-12-26,51.7,28.3,19.6,33.0,23.6,18.0,96,84,45,30.55,30.42,0,0,0,0.00
2013-12-27,46.1,27.7,18.0,31.0,22.4,16.0,95,82,50,30.48,30.28,1,0,0,0.00
2013-12-28,48.1,28.2,14.4,26.0,19.7,12.0,93,74,38,30.42,30.28,1,0,0,0.01
2013-12-29,47.2,29.1,21.5,26.0,21.6,18.0,92,75,42,30.43,30.32,2,0,0,0.00
2013-12-30,50.6,30.3,18.9,30.0,23.0,17.0,93,76,40,30.44,30.30,5,0,0,0.00
2013-12-31,54.1,33.1,25.1,29.0,23.5,20.0,88,71,33,30.38,30.24,2,0,0,0.00
2014-1-1,54.1,31.5,20.2,28.0,22.7,18.0,91,73,35,30.41,30.27,0,0,0,0.00
2014-1-2,55.0,32.5,21.6,34.0,25.9,20.0,94,79,43,30.36,30.21,0,0,0,0.00